When you browse on this site, cookies collect data to enhance your experience and personalize the content and advertising you see.
Visit our Privacy Policy to learn more. By continuing to use the site, you agree to this use of cookies and data.
  • In Belgien
  • Länderverzeichnis
  • Für 7 Tage
  • Wassertemperatur
  • Satellitenkarten
  • Wetterkarte
  • Widgets
  • user-avatar
    Anmelden

    Stündliche Wetter Zadore

    Heute, 22 März, Freitag

    Zeit Temperatur Niederschläge Wind Luftdruck Luftfeuchtigkeit
    00:00 -1°C° 0.1 mm 3 m/S 741 mmHg 91%
    01:00 0°C° 0.1 mm 3 m/S 740 mmHg 91%
    02:00 0°C° 0 mm 3 m/S 738 mmHg 89%
    03:00 0°C° 0.9 mm 3 m/S 737 mmHg 89%
    04:00 0°C° 0.9 mm 4 m/S 736 mmHg 89%
    05:00 0°C° 0.9 mm 5 m/S 735 mmHg 89%
    06:00 0°C° 0.7 mm 5 m/S 735 mmHg 88%
    07:00 +1°C° 0.7 mm 5 m/S 735 mmHg 87%
    08:00 +1°C° 0 mm 6 m/S 734 mmHg 85%
    09:00 0°C° 0.1 mm 7 m/S 734 mmHg 81%
    10:00 -1°C° 0.1 mm 7 m/S 735 mmHg 77%
    11:00 -1°C° 0.1 mm 7 m/S 736 mmHg 72%
    12:00 -1°C° 0.1 mm 7 m/S 736 mmHg 72%
    13:00 -2°C° 0.1 mm 7 m/S 737 mmHg 72%
    14:00 -2°C° 0.1 mm 7 m/S 738 mmHg 72%
    15:00 -2°C° 0.1 mm 7 m/S 738 mmHg 73%
    16:00 -2°C° 0.1 mm 6 m/S 739 mmHg 74%
    17:00 -2°C° 0.1 mm 6 m/S 739 mmHg 74%
    18:00 -3°C° 0.1 mm 6 m/S 739 mmHg 77%
    19:00 -3°C° 0.1 mm 6 m/S 740 mmHg 80%
    20:00 -2°C° 0.1 mm 5 m/S 740 mmHg 83%
    21:00 -2°C° 0.1 mm 5 m/S 741 mmHg 84%
    22:00 -2°C° 0.1 mm 5 m/S 741 mmHg 85%
    23:00 -1°C° 0.1 mm 5 m/S 741 mmHg 86%

    Morgen, 23 März, Samstag

    Zeit Temperatur Niederschläge Wind Luftdruck Luftfeuchtigkeit
    00:00 -1°C° 0 mm 5 m/S 742 mmHg 86%
    01:00 -1°C° 0 mm 5 m/S 743 mmHg 87%
    02:00 -1°C° 0 mm 5 m/S 743 mmHg 87%
    03:00 -1°C° 0 mm 4 m/S 744 mmHg 88%
    04:00 -1°C° 0 mm 4 m/S 745 mmHg 89%
    05:00 -1°C° 0 mm 4 m/S 745 mmHg 90%
    06:00 0°C° 0 mm 3 m/S 746 mmHg 90%
    07:00 0°C° 0 mm 3 m/S 746 mmHg 89%
    08:00 0°C° 0 mm 3 m/S 747 mmHg 89%
    09:00 +2°C° 0 mm 2 m/S 747 mmHg 86%
    10:00 +2°C° 0 mm 2 m/S 747 mmHg 82%
    11:00 +4°C° 0 mm 1 m/S 747 mmHg 79%
    12:00 +4°C° 0 mm 1 m/S 747 mmHg 78%
    13:00 +4°C° 0 mm 1 m/S 747 mmHg 76%
    14:00 +4°C° 0 mm 1 m/S 747 mmHg 75%
    15:00 +4°C° 0 mm 1 m/S 746 mmHg 78%
    16:00 +4°C° 0 mm 1 m/S 746 mmHg 82%
    17:00 +3°C° 0 mm 1 m/S 745 mmHg 85%
    18:00 +2°C° 0 mm 1 m/S 745 mmHg 87%
    19:00 -1°C° 0 mm 2 m/S 745 mmHg 89%
    20:00 -2°C° 0 mm 2 m/S 744 mmHg 92%
    21:00 -1°C° 0 mm 3 m/S 744 mmHg 90%
    22:00 -1°C° 0 mm 3 m/S 743 mmHg 89%
    23:00 -2°C° 0 mm 4 m/S 742 mmHg 87%

    übermorgen, 24 März, Sonntag

    Zeit Temperatur Niederschläge Wind Luftdruck Luftfeuchtigkeit
    00:00 -2°C° 0.1 mm 4 m/S 741 mmHg 86%
    01:00 -1°C° 0.1 mm 4 m/S 741 mmHg 85%
    02:00 -1°C° 0.1 mm 4 m/S 740 mmHg 84%
    03:00 -1°C° 0.6 mm 4 m/S 739 mmHg 86%
    04:00 -1°C° 0.6 mm 4 m/S 739 mmHg 88%
    05:00 -1°C° 0.6 mm 4 m/S 738 mmHg 90%
    06:00 -1°C° 0 mm 4 m/S 738 mmHg 90%
    07:00 +1°C° 0 mm 3 m/S 738 mmHg 90%
    08:00 +1°C° 0 mm 3 m/S 737 mmHg 90%
    09:00 +2°C° 0 mm 3 m/S 737 mmHg 86%
    10:00 +1°C° 0 mm 4 m/S 737 mmHg 83%
    11:00 +3°C° 0 mm 4 m/S 737 mmHg 79%
    12:00 +3°C° 0.1 mm 4 m/S 737 mmHg 73%
    13:00 +2°C° 0.1 mm 5 m/S 737 mmHg 67%
    14:00 +2°C° 0.1 mm 5 m/S 737 mmHg 61%
    15:00 +3°C° 0.1 mm 4 m/S 737 mmHg 65%
    16:00 +2°C° 0.1 mm 3 m/S 737 mmHg 68%
    17:00 +1°C° 0.1 mm 3 m/S 737 mmHg 72%
    18:00 0°C° 0 mm 3 m/S 737 mmHg 75%
    19:00 -1°C° 0 mm 2 m/S 737 mmHg 78%
    20:00 -2°C° 0 mm 2 m/S 737 mmHg 81%
    21:00 -2°C° 0 mm 2 m/S 737 mmHg 80%
    22:00 -2°C° 0 mm 3 m/S 736 mmHg 80%
    23:00 -2°C° 0 mm 3 m/S 736 mmHg 79%

    25 März, Montag

    Zeit Temperatur Niederschläge Wind Luftdruck Luftfeuchtigkeit
    00:00 -2°C° 0 mm 3 m/S 736 mmHg 79%
    01:00 -2°C° 0 mm 3 m/S 736 mmHg 79%
    02:00 -2°C° 0 mm 3 m/S 736 mmHg 79%
    03:00 -4°C° 0 mm 3 m/S 735 mmHg 80%
    04:00 -4°C° 0 mm 3 m/S 735 mmHg 81%
    05:00 -4°C° 0 mm 3 m/S 735 mmHg 82%
    06:00 -2°C° 0 mm 3 m/S 735 mmHg 79%
    07:00 -1°C° 0 mm 3 m/S 735 mmHg 77%
    08:00 -1°C° 0 mm 3 m/S 735 mmHg 74%
    09:00 0°C° 0 mm 4 m/S 735 mmHg 70%
    10:00 +1°C° 0 mm 4 m/S 735 mmHg 67%
    11:00 +3°C° 0 mm 4 m/S 735 mmHg 63%
    12:00 +4°C° 0.1 mm 4 m/S 735 mmHg 60%
    13:00 +4°C° 0.1 mm 4 m/S 735 mmHg 57%
    14:00 +5°C° 0.1 mm 4 m/S 734 mmHg 55%
    15:00 +4°C° 0 mm 3 m/S 734 mmHg 60%
    16:00 +3°C° 0 mm 3 m/S 734 mmHg 65%
    17:00 +3°C° 0 mm 2 m/S 734 mmHg 71%
    18:00 +2°C° 0 mm 2 m/S 735 mmHg 75%
    19:00 +1°C° 0 mm 2 m/S 735 mmHg 79%
    20:00 -1°C° 0 mm 2 m/S 735 mmHg 82%
    21:00 -2°C° 0 mm 2 m/S 736 mmHg 85%
    22:00 -2°C° 0 mm 2 m/S 736 mmHg 87%
    23:00 -2°C° 0 mm 2 m/S 736 mmHg 89%

    26 März, Dienstag

    Zeit Temperatur Niederschläge Wind Luftdruck Luftfeuchtigkeit
    00:00 -2°C° 0.1 mm 2 m/S 737 mmHg 91%
    01:00 -2°C° 0.1 mm 2 m/S 737 mmHg 92%
    02:00 -2°C° 0.1 mm 2 m/S 737 mmHg 94%
    03:00 -2°C° 0 mm 2 m/S 738 mmHg 93%
    04:00 -3°C° 0 mm 2 m/S 738 mmHg 91%
    05:00 -4°C° 0 mm 2 m/S 739 mmHg 90%
    06:00 -4°C° 0 mm 3 m/S 739 mmHg 85%
    07:00 -4°C° 0 mm 3 m/S 740 mmHg 80%
    08:00 -4°C° 0 mm 4 m/S 740 mmHg 75%
    09:00 -3°C° 0 mm 4 m/S 741 mmHg 69%
    10:00 -2°C° 0 mm 4 m/S 741 mmHg 63%
    11:00 -1°C° 0 mm 4 m/S 741 mmHg 57%
    12:00 -1°C° 0.1 mm 4 m/S 741 mmHg 56%
    13:00 -1°C° 0.1 mm 4 m/S 741 mmHg 55%
    14:00 -1°C° 0.1 mm 4 m/S 741 mmHg 54%
    15:00 -1°C° 0.1 mm 4 m/S 741 mmHg 56%
    16:00 0°C° 0.1 mm 3 m/S 741 mmHg 58%
    17:00 -1°C° 0.1 mm 2 m/S 741 mmHg 60%
    18:00 -2°C° 0 mm 2 m/S 741 mmHg 65%
    19:00 -3°C° 0 mm 2 m/S 741 mmHg 71%
    20:00 -4°C° 0 mm 2 m/S 741 mmHg 76%
    21:00 -4°C° 0 mm 2 m/S 741 mmHg 74%
    22:00 -4°C° 0 mm 3 m/S 741 mmHg 72%
    23:00 -4°C° 0 mm 3 m/S 741 mmHg 69%

    27 März, Mittwoch

    Zeit Temperatur Niederschläge Wind Luftdruck Luftfeuchtigkeit
    00:00 -4°C° 0 mm 3 m/S 741 mmHg 71%
    01:00 -4°C° 0 mm 3 m/S 741 mmHg 72%
    02:00 -4°C° 0 mm 3 m/S 741 mmHg 73%
    03:00 -4°C° 0 mm 3 m/S 741 mmHg 73%
    04:00 -4°C° 0 mm 3 m/S 741 mmHg 74%
    05:00 -4°C° 0 mm 3 m/S 741 mmHg 74%
    06:00 -3°C° 0 mm 4 m/S 741 mmHg 72%
    07:00 -2°C° 0 mm 4 m/S 741 mmHg 69%
    08:00 -1°C° 0 mm 5 m/S 741 mmHg 67%
    09:00 0°C° 0 mm 5 m/S 741 mmHg 65%
    10:00 +1°C° 0 mm 5 m/S 740 mmHg 63%
    11:00 +3°C° 0 mm 4 m/S 740 mmHg 61%
    12:00 +2°C° 0 mm 5 m/S 740 mmHg 66%
    13:00 +2°C° 0 mm 5 m/S 740 mmHg 71%
    14:00 +2°C° 0 mm 5 m/S 740 mmHg 76%
    15:00 +2°C° 0 mm 5 m/S 740 mmHg 77%
    16:00 +2°C° 0 mm 5 m/S 740 mmHg 79%
    17:00 +1°C° 0 mm 4 m/S 740 mmHg 80%
    18:00 +1°C° 0 mm 4 m/S 740 mmHg 82%
    19:00 +1°C° 0 mm 4 m/S 741 mmHg 85%
    20:00 0°C° 0 mm 4 m/S 741 mmHg 88%
    21:00 0°C° 0 mm 4 m/S 741 mmHg 89%
    22:00 0°C° 0 mm 4 m/S 741 mmHg 91%
    23:00 +1°C° 0 mm 3 m/S 741 mmHg 92%
    Mehr zeigen